EA5CEE Weather Reports


time (UTC)temp
F
wind
direction
speed
knots
gust
knots
rain 1hr
in
rain 24hr
in
rain mn
in
humidity
%
barometer
mb
20260510183055 68 193 9.6 16.5 0.00 0.00 0.00 73 1010.0
20260510181615 69 210 10.4 16.5 0.00 0.00 0.00 74 1010.0
20260510180142 69 191 11.3 18.2 0.00 0.00 0.00 71 1010.1
20260510174553 70 225 9.6 15.6 0.00 0.00 0.00 70 1010.1
20260510173040 70 221 10.4 18.2 0.00 0.00 0.00 68 1010.2
20260510171539 70 195 9.6 19.1 0.00 0.00 0.00 69 1010.1
20260510170037 70 201 12.2 19.1 0.00 0.00 0.00 69 1010.2
20260510164541 71 191 11.3 20.0 0.00 0.00 0.00 69 1010.3
20260510163036 71 210 10.4 18.2 0.00 0.00 0.00 69 1010.3
20260510161535 72 180 6.1 13.9 0.00 0.00 0.00 69 1010.4
20260510160039 72 139 7.8 15.6 0.00 0.00 0.00 68 1010.3
20260510154533 71 204 12.2 18.2 0.00 0.00 0.00 69 1010.5
20260510153033 71 205 7.0 20.0 0.00 0.00 0.00 71 1010.6
20260510151529 71 198 5.2 16.5 0.00 0.00 0.00 75 1010.6
20260510150028 70 150 8.7 20.9 0.00 0.00 0.00 77 1010.8
20260510144526 71 191 10.4 18.2 0.00 0.00 0.00 74 1011.0
20260510143027 71 195 7.8 16.5 0.00 0.00 0.00 73 1011.0
20260510141527 71 163 8.7 18.2 0.00 0.00 0.00 73 1011.2
20260510140025 71 191 9.6 20.9 0.00 0.00 0.00 71 1011.4
20260510134519 71 158 8.7 16.5 0.00 0.00 0.00 71 1011.4
20260510133017 70 148 7.8 15.6 0.00 0.00 0.00 80 1011.7
20260510131514 70 163 7.0 14.8 0.00 0.00 0.00 78 1011.9
20260510130012 70 176 7.0 14.8 0.00 0.00 0.00 79 1012.0
20260510124510 70 173 7.8 14.8 0.00 0.00 0.00 79 1012.3
20260510123009 69 197 5.2 11.3 0.00 0.00 0.00 81 1012.7
20260510121506 68 196 8.7 13.9 0.00 0.00 0.00 84 1012.7
20260510120008 68 138 6.1 13.0 0.00 0.00 0.00 83 1012.9
20260510114508 68 200 5.2 13.0 0.00 0.00 0.00 83 1013.1
20260510113004 68 186 7.8 13.9 0.00 0.00 0.00 80 1013.2
20260510111504 68 170 6.1 12.2 0.00 0.00 0.00 79 1013.3
20260510110001 69 108 5.2 9.6 0.00 0.00 0.00 80 1013.4
20260510104602 69 109 5.2 9.6 0.00 0.00 0.00 76 1013.4
20260510103058 68 131 3.5 7.0 0.00 0.00 0.00 78 1013.4
20260510101603 68 108 4.3 7.0 0.00 0.00 0.00 79 1013.3
20260510100125 68 95 3.5 6.1 0.00 0.00 0.00 82 1013.3
20260510094557 68 78 2.6 6.1 0.00 0.00 0.00 81 1013.5
20260510093057 68 65 2.6 4.3 0.00 0.00 0.00 81 1013.7
20260510091555 67 109 3.5 6.1 0.00 0.00 0.00 83 1013.6
20260510090051 66 136 2.6 7.0 0.00 0.00 0.00 84 1013.8
20260510084549 66 115 3.5 7.0 0.00 0.00 0.00 83 1013.7
20260510083054 67 62 3.5 6.1 0.00 0.00 0.00 81 1013.8
20260510081549 68 250 0.9 2.6 0.00 0.00 0.00 73 1013.9
20260510080052 66 251 0.0 2.6 0.00 0.00 0.00 81 1014.0
20260510074541 65 280 0.0 2.6 0.00 0.00 0.00 86 1013.8
20260510073040 65 73 0.0 0.9 0.00 0.00 0.00 86 1013.9
20260510071546 64 54 0.0 2.6 0.00 0.00 0.00 86 1013.6
20260510070034 64 356 0.9 3.5 0.00 0.00 0.00 88 1013.5
20260510064533 63 329 0.9 2.6 0.00 0.00 0.00 89 1013.7
20260510063031 63 340 0.9 2.6 0.00 0.00 0.00 91 1013.6
20260510061540 63 342 0.0 1.7 0.00 0.00 0.00 90 1013.6
20260510060028 62 228 0.0 0.0 0.00 0.00 0.00 93 1013.5
20260510054527 60 228 0.0 0.0 0.00 0.00 0.00 95 1013.4
20260510053125 60 235 0.0 1.7 0.00 0.00 0.00 94 1013.3
20260510051524 60 235 0.0 0.0 0.00 0.00 0.00 95 1013.3
20260510050022 60 235 0.0 0.0 0.00 0.00 0.00 94 1013.2
20260510044520 60 105 0.0 0.0 0.00 0.00 0.00 93 1013.3
20260510043022 61 105 0.0 0.0 0.00 0.00 0.00 93 1013.1
20260510041519 61 106 0.0 0.0 0.00 0.00 0.00 92 1013.0
20260510040118 61 106 0.0 0.0 0.00 0.00 0.00 92 1012.9
20260510034518 61 106 0.0 0.0 0.00 0.00 0.00 92 1012.8
20260510033019 61 106 0.0 0.0 0.00 0.00 0.00 93 1012.7
20260510031533 62 106 0.0 0.0 0.00 0.00 0.00 92 1012.7
20260510030021 61 105 0.0 0.0 0.00 0.00 0.00 92 1012.7
20260510024528 61 105 0.0 0.0 0.00 0.00 0.00 91 1012.6
20260510023016 61 106 0.0 0.0 0.00 0.00 0.00 91 1012.7
20260510021516 61 106 0.0 0.0 0.00 0.00 0.00 91 1012.5
20260510020015 61 105 0.0 0.0 0.00 0.00 0.00 91 1012.5
20260510014513 61 106 0.0 0.0 0.00 0.00 0.00 91 1012.6
20260510013013 61 106 0.0 0.9 0.00 0.00 0.00 93 1012.5
20260510011510 61 248 0.0 0.0 0.00 0.00 0.00 92 1012.7
20260510010008 60 248 0.0 0.0 0.00 0.00 0.00 91 1012.8
20260510004507 60 248 0.0 0.0 0.00 0.00 0.00 91 1013.0
20260510003019 61 248 0.0 0.0 0.00 0.00 0.00 92 1012.9
20260510001504 60 246 0.0 0.0 0.00 0.00 0.00 92 1013.2
20260510000002 61 248 0.0 0.0 0.00 0.00 0.00 91 1013.4
20260509234614 61 248 0.0 0.9 0.00 0.00 0.00 91 1013.5
20260509233058 61 228 0.0 0.9 0.00 0.00 0.00 92 1013.5
20260509231557 62 228 0.0 0.9 0.00 0.00 0.00 92 1013.6
20260509230100 62 235 0.0 2.6 0.00 0.00 0.00 93 1013.7
20260509224554 62 214 1.7 4.3 0.00 0.00 0.00 92 1013.8
20260509223052 62 193 2.6 4.3 0.00 0.00 0.00 87 1013.6
20260509221551 62 212 0.9 2.6 0.00 0.00 0.00 87 1013.5
20260509220052 62 215 1.7 5.2 0.00 0.00 0.00 86 1013.5
20260509214552 62 229 2.6 5.2 0.00 0.00 0.00 87 1013.7
20260509213048 62 217 3.5 7.0 0.00 0.00 0.00 89 1013.5
20260509211546 62 198 1.7 4.3 0.00 0.00 0.00 90 1013.4
20260509210049 63 172 0.9 3.5 0.00 0.00 0.00 89 1013.4
20260509204544 63 158 0.9 5.2 0.00 0.00 0.00 89 1013.3
20260509203042 63 180 1.7 6.1 0.00 0.00 0.00 90 1013.2
20260509201539 63 205 3.5 7.0 0.00 0.00 0.00 88 1013.0
20260509200037 63 195 3.5 8.7 0.00 0.00 0.00 87 1012.7
20260509194537 63 217 3.5 10.4 0.00 0.00 0.00 87 1012.5
20260509193033 63 194 4.3 10.4 0.00 0.00 0.00 88 1012.5
20260509191532 63 150 3.5 7.0 0.00 0.00 0.00 89 1012.4
20260509190032 63 159 4.3 10.4 0.00 0.00 0.00 89 1012.3
20260509184529 64 177 5.2 12.2 0.00 0.00 0.00 89 1011.9